| time (UTC) | temp F | wind direction | speed knots | gust knots | rain 1hr in | rain 24hr in | rain mn in | humidity % | barometer mb |
| 20260503003746 | 64 | 106 | 0.0 | 1.7 | 0.00 | 0.00 | 0.00 | 39 | 1009.2 |
| 20260503003243 | 64 | 354 | 0.0 | 1.7 | 0.00 | 0.00 | 0.00 | 40 | 1009.1 |
| 20260503002740 | 64 | 143 | 1.7 | 1.7 | 0.00 | 0.00 | 0.00 | 38 | 1009.1 |
| 20260503002237 | 64 | 103 | 0.0 | 1.7 | 0.00 | 0.00 | 0.00 | 39 | 1009.3 |
| 20260503001733 | 64 | 103 | 0.0 | 0.0 | 0.00 | 0.00 | 0.00 | 39 | 1009.1 |
| 20260503001229 | 64 | 8 | 0.0 | 1.7 | 0.00 | 0.00 | 0.00 | 39 | 1009.4 |
| 20260503000728 | 65 | 155 | 3.5 | 3.5 | 0.00 | 0.00 | 0.00 | 38 | 1009.1 |
| 20260503000226 | 65 | 135 | 0.0 | 2.6 | 0.00 | 0.00 | 0.00 | 37 | 1009.3 |
| 20260502235721 | 65 | 157 | 2.6 | 4.3 | 0.00 | 0.00 | 0.00 | 37 | 1009.4 |
| 20260502235220 | 65 | 158 | 0.0 | 1.7 | 0.00 | 0.00 | 0.00 | 37 | 1009.5 |
| 20260502234715 | 65 | 328 | 2.6 | 2.6 | 0.00 | 0.00 | 0.00 | 36 | 1009.3 |
| 20260502234213 | 66 | 141 | 2.6 | 2.6 | 0.00 | 0.00 | 0.00 | 35 | 1009.5 |
| 20260502233708 | 66 | 4 | 1.7 | 6.1 | 0.00 | 0.00 | 0.00 | 35 | 1009.3 |
| 20260502233206 | 66 | 318 | 0.0 | 5.2 | 0.00 | 0.00 | 0.00 | 35 | 1009.4 |
| 20260502232701 | 66 | 37 | 1.7 | 1.7 | 0.00 | 0.00 | 0.00 | 35 | 1009.4 |
| 20260502232159 | 66 | 0 | 1.7 | 2.6 | 0.00 | 0.00 | 0.00 | 34 | 1009.4 |
| 20260502231655 | 67 | 54 | 0.9 | 2.6 | 0.00 | 0.00 | 0.00 | 34 | 1009.4 |
| 20260502231153 | 67 | 32 | 0.0 | 2.6 | 0.00 | 0.00 | 0.00 | 34 | 1009.4 |
| 20260502230652 | 67 | 67 | 0.0 | 1.7 | 0.00 | 0.00 | 0.00 | 34 | 1009.4 |
| 20260502230150 | 67 | 15 | 1.7 | 1.7 | 0.00 | 0.00 | 0.00 | 33 | 1009.5 |
| 20260502225645 | 67 | 14 | 0.0 | 2.6 | 0.00 | 0.00 | 0.00 | 33 | 1009.5 |
| 20260502225143 | 67 | 120 | 0.9 | 3.5 | 0.00 | 0.00 | 0.00 | 33 | 1009.5 |
| 20260502224638 | 67 | 124 | 0.0 | 3.5 | 0.00 | 0.00 | 0.00 | 32 | 1009.7 |
| 20260502224135 | 67 | 20 | 0.0 | 1.7 | 0.00 | 0.00 | 0.00 | 33 | 1009.6 |
| 20260502223633 | 66 | 75 | 0.0 | 2.6 | 0.00 | 0.00 | 0.00 | 34 | 1009.5 |
| 20260502223131 | 67 | 0 | 0.0 | 2.6 | 0.00 | 0.00 | 0.00 | 33 | 1009.8 |
| 20260502222628 | 66 | 78 | 0.0 | 1.7 | 0.00 | 0.00 | 0.00 | 34 | 1010.0 |
| 20260502222125 | 66 | 8 | 0.0 | 0.9 | 0.00 | 0.00 | 0.00 | 34 | 1009.9 |
| 20260502221620 | 67 | 14 | 1.7 | 1.7 | 0.00 | 0.00 | 0.00 | 34 | 1009.9 |
| 20260502221118 | 66 | 82 | 0.9 | 2.6 | 0.00 | 0.00 | 0.00 | 33 | 1010.1 |
| 20260502220614 | 67 | 328 | 1.7 | 6.1 | 0.00 | 0.00 | 0.00 | 32 | 1010.0 |
| 20260502220110 | 67 | 132 | 0.0 | 2.6 | 0.00 | 0.00 | 0.00 | 32 | 1010.2 |
| 20260502215608 | 67 | 127 | 0.0 | 2.6 | 0.00 | 0.00 | 0.00 | 33 | 1010.1 |
| 20260502215104 | 68 | 98 | 0.0 | 2.6 | 0.00 | 0.00 | 0.00 | 33 | 1010.2 |
| 20260502214601 | 68 | 90 | 0.0 | 3.5 | 0.00 | 0.00 | 0.00 | 32 | 1010.4 |
| 20260502214059 | 68 | 36 | 1.7 | 4.3 | 0.00 | 0.00 | 0.00 | 33 | 1010.4 |
| 20260502213555 | 68 | 6 | 3.5 | 3.5 | 0.00 | 0.00 | 0.00 | 32 | 1010.6 |
| 20260502213053 | 68 | 353 | 0.0 | 4.3 | 0.00 | 0.00 | 0.00 | 32 | 1010.4 |
| 20260502212552 | 67 | 173 | 0.9 | 7.0 | 0.00 | 0.00 | 0.00 | 32 | 1010.6 |
| 20260502212049 | 68 | 262 | 0.9 | 4.3 | 0.00 | 0.00 | 0.00 | 32 | 1010.6 |
| 20260502211545 | 68 | 31 | 0.0 | 3.5 | 0.00 | 0.00 | 0.00 | 32 | 1010.7 |
| 20260502211042 | 68 | 124 | 2.6 | 4.3 | 0.00 | 0.00 | 0.00 | 32 | 1010.8 |
| 20260502210539 | 68 | 81 | 2.6 | 5.2 | 0.00 | 0.00 | 0.00 | 32 | 1010.8 |
| 20260502210036 | 68 | 295 | 0.0 | 4.3 | 0.00 | 0.00 | 0.00 | 33 | 1010.9 |
| 20260502205533 | 68 | 15 | 0.0 | 2.6 | 0.00 | 0.00 | 0.00 | 31 | 1011.0 |
| 20260502205030 | 68 | 21 | 2.6 | 3.5 | 0.00 | 0.00 | 0.00 | 31 | 1011.3 |
| 20260502204527 | 68 | 8 | 0.0 | 4.3 | 0.00 | 0.00 | 0.00 | 32 | 1011.2 |
| 20260502204025 | 67 | 328 | 0.0 | 3.5 | 0.00 | 0.00 | 0.00 | 31 | 1011.5 |
| 20260502203521 | 67 | 125 | 0.0 | 5.2 | 0.00 | 0.00 | 0.00 | 32 | 1011.6 |
| 20260502203018 | 67 | 29 | 1.7 | 2.6 | 0.00 | 0.00 | 0.00 | 33 | 1011.6 |
| 20260502202514 | 67 | 346 | 2.6 | 4.3 | 0.00 | 0.00 | 0.00 | 33 | 1011.8 |
| 20260502202013 | 67 | 135 | 2.6 | 3.5 | 0.00 | 0.00 | 0.00 | 32 | 1011.8 |
| 20260502201509 | 67 | 81 | 1.7 | 4.3 | 0.00 | 0.00 | 0.00 | 33 | 1012.0 |
| 20260502201005 | 67 | 96 | 1.7 | 5.2 | 0.00 | 0.00 | 0.00 | 32 | 1012.3 |
| 20260502200501 | 68 | 8 | 0.0 | 4.3 | 0.00 | 0.00 | 0.00 | 32 | 1012.3 |
| 20260502195959 | 66 | 60 | 0.0 | 3.5 | 0.00 | 0.00 | 0.00 | 31 | 1012.4 |
| 20260502195456 | 67 | 19 | 2.6 | 3.5 | 0.00 | 0.00 | 0.00 | 32 | 1012.5 |
| 20260502194952 | 68 | 35 | 4.3 | 7.0 | 0.00 | 0.00 | 0.00 | 31 | 1012.4 |
| 20260502194449 | 67 | 315 | 0.0 | 3.5 | 0.00 | 0.00 | 0.00 | 31 | 1012.7 |
| 20260502193944 | 66 | 180 | 0.0 | 4.3 | 0.00 | 0.00 | 0.00 | 32 | 1012.6 |
| 20260502193442 | 66 | 270 | 2.6 | 7.0 | 0.00 | 0.00 | 0.00 | 33 | 1013.0 |
| 20260502192938 | 65 | 26 | 2.6 | 2.6 | 0.00 | 0.00 | 0.00 | 32 | 1013.0 |
| 20260502192435 | 66 | 154 | 0.0 | 5.2 | 0.00 | 0.00 | 0.00 | 32 | 1013.0 |
| 20260502191932 | 67 | 45 | 1.7 | 1.7 | 0.00 | 0.00 | 0.00 | 32 | 1013.1 |
| 20260502191429 | 65 | 109 | 0.0 | 4.3 | 0.00 | 0.00 | 0.00 | 32 | 1013.3 |
| 20260502190926 | 67 | 132 | 1.7 | 5.2 | 0.00 | 0.00 | 0.00 | 30 | 1013.3 |
| 20260502190423 | 67 | 300 | 2.6 | 4.3 | 0.00 | 0.00 | 0.00 | 31 | 1013.5 |
| 20260502185919 | 65 | 63 | 0.9 | 4.3 | 0.00 | 0.00 | 0.00 | 33 | 1013.6 |
| 20260502185410 | 66 | 16 | 3.5 | 4.3 | 0.00 | 0.00 | 0.00 | 32 | 1013.7 |
| 20260502184907 | 66 | 139 | 1.7 | 3.5 | 0.00 | 0.00 | 0.00 | 33 | 1013.6 |
| 20260502184403 | 64 | 83 | 0.0 | 6.1 | 0.00 | 0.00 | 0.00 | 32 | 1013.9 |
| 20260502183859 | 64 | 60 | 0.0 | 3.5 | 0.00 | 0.00 | 0.00 | 33 | 1014.1 |
| 20260502183355 | 64 | 337 | 1.7 | 4.3 | 0.00 | 0.00 | 0.00 | 32 | 1014.1 |
| 20260502182851 | 65 | 270 | 1.7 | 4.3 | 0.00 | 0.00 | 0.00 | 33 | 1014.2 |
| 20260502182346 | 65 | 125 | 2.6 | 6.1 | 0.00 | 0.00 | 0.00 | 33 | 1014.3 |
| 20260502181843 | 64 | 266 | 0.0 | 4.3 | 0.00 | 0.00 | 0.00 | 31 | 1014.2 |
| 20260502181342 | 64 | 338 | 1.7 | 6.1 | 0.00 | 0.00 | 0.00 | 31 | 1014.5 |
| 20260502180839 | 64 | 161 | 3.5 | 7.8 | 0.00 | 0.00 | 0.00 | 31 | 1014.4 |
| 20260502180336 | 64 | 261 | 1.7 | 7.0 | 0.00 | 0.00 | 0.00 | 33 | 1014.4 |
| 20260502170255 | 64 | 59 | 1.7 | 2.6 | 0.00 | 0.00 | 0.00 | 33 | 1015.6 |
| 20260502164243 | 62 | 152 | 1.7 | 7.8 | 0.00 | 0.00 | 0.00 | 32 | 1016.0 |
| 20260502163738 | 63 | 32 | 1.7 | 3.5 | 0.00 | 0.00 | 0.00 | 31 | 1015.9 |
| 20260502163235 | 63 | 7 | 0.0 | 5.2 | 0.00 | 0.00 | 0.00 | 32 | 1015.8 |
| 20260502162732 | 63 | 21 | 1.7 | 2.6 | 0.00 | 0.00 | 0.00 | 33 | 1016.0 |
| 20260502162229 | 61 | 14 | 0.9 | 3.5 | 0.00 | 0.00 | 0.00 | 34 | 1016.3 |
| 20260502161726 | 62 | 285 | 1.7 | 3.5 | 0.00 | 0.00 | 0.00 | 33 | 1016.4 |
| 20260502161222 | 62 | 40 | 1.7 | 5.2 | 0.00 | 0.00 | 0.00 | 33 | 1016.3 |
| 20260502160721 | 62 | 180 | 0.9 | 2.6 | 0.00 | 0.00 | 0.00 | 33 | 1016.4 |
| 20260502160219 | 62 | 90 | 0.0 | 2.6 | 0.00 | 0.00 | 0.00 | 33 | 1016.4 |
| 20260502152143 | 62 | 71 | 0.0 | 4.3 | 0.00 | 0.00 | 0.00 | 34 | 1016.6 |
| 20260502151641 | 61 | 45 | 0.0 | 5.2 | 0.00 | 0.00 | 0.00 | 35 | 1016.7 |
| 20260502151138 | 61 | 124 | 3.5 | 5.2 | 0.00 | 0.00 | 0.00 | 34 | 1016.8 |
| 20260502150635 | 62 | 15 | 0.0 | 3.5 | 0.00 | 0.00 | 0.00 | 34 | 1016.6 |
| 20260502150131 | 60 | 135 | 0.0 | 3.5 | 0.00 | 0.00 | 0.00 | 36 | 1016.8 |
| 20260502130520 | 56 | 143 | 1.7 | 1.7 | 0.00 | 0.00 | 0.00 | 44 | 1017.3 |
| 20260502123503 | 52 | 18 | 0.0 | 1.7 | 0.00 | 0.00 | 0.00 | 49 | 1017.2 |
| 20260502123000 | 51 | 60 | 0.0 | 0.9 | 0.00 | 0.00 | 0.00 | 54 | 1017.3 |
| 20260502122456 | 47 | 145 | 0.9 | 2.6 | 0.00 | 0.00 | 0.00 | 57 | 1017.4 |
| 20260502121954 | 46 | 132 | 0.0 | 1.7 | 0.00 | 0.00 | 0.00 | 60 | 1017.1 |
| 20260502121451 | 43 | 120 | 0.0 | 1.7 | 0.00 | 0.00 | 0.00 | 66 | 1017.3 |
| 20260502120948 | 40 | 98 | 0.9 | 1.7 | 0.00 | 0.00 | 0.00 | 72 | 1017.2 |
| 20260502120444 | 39 | 159 | 1.7 | 1.7 | 0.00 | 0.00 | 0.00 | 74 | 1017.3 |
| 20260502115439 | 36 | 90 | 0.9 | 0.9 | 0.00 | 0.00 | 0.00 | 80 | 1017.3 |
| 20260502114935 | 36 | 111 | 0.0 | 0.9 | 0.00 | 0.00 | 0.00 | 80 | 1017.3 |
| 20260502114432 | 35 | 105 | 0.9 | 1.7 | 0.00 | 0.00 | 0.00 | 80 | 1017.5 |
| 20260502113929 | 35 | 66 | 0.0 | 1.7 | 0.00 | 0.00 | 0.00 | 80 | 1017.2 |
| 20260502113427 | 35 | 114 | 0.0 | 1.7 | 0.00 | 0.00 | 0.00 | 80 | 1017.3 |
| 20260502112925 | 35 | 114 | 0.9 | 0.9 | 0.00 | 0.00 | 0.00 | 79 | 1017.3 |
| 20260502112422 | 34 | 106 | 0.0 | 0.9 | 0.00 | 0.00 | 0.00 | 79 | 1017.0 |
| 20260502111920 | 35 | 90 | 0.0 | 0.9 | 0.00 | 0.00 | 0.00 | 79 | 1017.2 |
| 20260502111417 | 34 | 90 | 0.0 | 0.9 | 0.00 | 0.00 | 0.00 | 79 | 1016.9 |
| 20260502110914 | 35 | 98 | 0.9 | 0.9 | 0.00 | 0.00 | 0.00 | 78 | 1016.7 |
| 20260502110412 | 35 | 82 | 0.0 | 0.9 | 0.00 | 0.00 | 0.00 | 78 | 1017.1 |
| 20260502105909 | 35 | 90 | 0.0 | 0.9 | 0.00 | 0.00 | 0.00 | 77 | 1017.0 |
| 20260502105406 | 35 | 90 | 0.0 | 1.7 | 0.00 | 0.00 | 0.00 | 77 | 1016.8 |
| 20260502104904 | 34 | 121 | 1.7 | 1.7 | 0.00 | 0.00 | 0.00 | 78 | 1017.1 |
| 20260502104401 | 34 | 98 | 0.0 | 1.7 | 0.00 | 0.00 | 0.00 | 77 | 1017.0 |
| 20260502103858 | 34 | 106 | 0.0 | 1.7 | 0.00 | 0.00 | 0.00 | 77 | 1017.0 |
| 20260502103356 | 35 | 83 | 0.0 | 0.9 | 0.00 | 0.00 | 0.00 | 76 | 1017.0 |
| 20260502102852 | 35 | 83 | 0.9 | 0.9 | 0.00 | 0.00 | 0.00 | 76 | 1016.9 |
| 20260502102349 | 35 | 90 | 0.0 | 0.9 | 0.00 | 0.00 | 0.00 | 75 | 1016.8 |
| 20260502101847 | 35 | 106 | 0.0 | 0.9 | 0.00 | 0.00 | 0.00 | 75 | 1017.0 |
| 20260502101345 | 35 | 90 | 0.0 | 0.9 | 0.00 | 0.00 | 0.00 | 75 | 1017.2 |
| 20260502100843 | 35 | 83 | 0.9 | 0.9 | 0.00 | 0.00 | 0.00 | 74 | 1016.8 |
| 20260502100342 | 36 | 66 | 0.0 | 0.9 | 0.00 | 0.00 | 0.00 | 74 | 1016.9 |
| 20260502091315 | 37 | 66 | 0.0 | 0.9 | 0.00 | 0.00 | 0.00 | 69 | 1016.8 |
| 20260502090813 | 37 | 90 | 0.0 | 0.9 | 0.00 | 0.00 | 0.00 | 68 | 1016.6 |
| 20260502090309 | 38 | 97 | 0.0 | 0.9 | 0.00 | 0.00 | 0.00 | 68 | 1016.6 |
| 20260502071205 | 39 | 117 | 0.0 | 1.7 | 0.00 | 0.00 | 0.00 | 67 | 1017.1 |
| 20260502070703 | 39 | 105 | 0.9 | 1.7 | 0.00 | 0.00 | 0.00 | 67 | 1017.0 |
| 20260502070200 | 39 | 90 | 0.0 | 0.9 | 0.00 | 0.00 | 0.00 | 66 | 1017.0 |
| 20260502065659 | 39 | 109 | 0.0 | 1.7 | 0.00 | 0.00 | 0.00 | 65 | 1017.1 |
| 20260502065156 | 40 | 114 | 0.0 | 1.7 | 0.00 | 0.00 | 0.00 | 64 | 1017.3 |
| 20260502064655 | 40 | 120 | 0.9 | 1.7 | 0.00 | 0.00 | 0.00 | 64 | 1017.0 |
| 20260502064151 | 39 | 114 | 0.0 | 0.9 | 0.00 | 0.00 | 0.00 | 65 | 1017.3 |
| 20260502063649 | 39 | 82 | 0.0 | 1.7 | 0.00 | 0.00 | 0.00 | 67 | 1017.5 |
| 20260502063147 | 39 | 74 | 0.0 | 0.9 | 0.00 | 0.00 | 0.00 | 66 | 1017.2 |
| 20260502062643 | 39 | 90 | 0.0 | 0.9 | 0.00 | 0.00 | 0.00 | 65 | 1017.1 |
| 20260502062141 | 39 | 120 | 0.9 | 0.9 | 0.00 | 0.00 | 0.00 | 65 | 1017.2 |
| 20260502061639 | 39 | 97 | 0.0 | 0.9 | 0.00 | 0.00 | 0.00 | 65 | 1017.3 |
| 20260502061136 | 39 | 98 | 0.0 | 0.9 | 0.00 | 0.00 | 0.00 | 65 | 1017.2 |
| 20260502060637 | 39 | 106 | 0.0 | 0.9 | 0.00 | 0.00 | 0.00 | 65 | 1017.1 |
| 20260502060133 | 39 | 83 | 0.0 | 1.7 | 0.00 | 0.00 | 0.00 | 65 | 1017.3 |
| 20260502055631 | 39 | 97 | 0.0 | 0.9 | 0.00 | 0.00 | 0.00 | 65 | 1017.4 |
| 20260502055129 | 39 | 75 | 0.9 | 0.9 | 0.00 | 0.00 | 0.00 | 65 | 1017.3 |
| 20260502054628 | 39 | 75 | 0.0 | 0.9 | 0.00 | 0.00 | 0.00 | 65 | 1017.3 |
| 20260502054125 | 39 | 75 | 0.0 | 1.7 | 0.00 | 0.00 | 0.00 | 65 | 1017.4 |
| 20260502053622 | 39 | 120 | 0.0 | 0.9 | 0.00 | 0.00 | 0.00 | 65 | 1017.2 |
| 20260502053119 | 39 | 90 | 0.0 | 0.9 | 0.00 | 0.00 | 0.00 | 65 | 1017.4 |
| 20260502052617 | 39 | 90 | 0.0 | 0.9 | 0.00 | 0.00 | 0.00 | 64 | 1017.4 |
| 20260502052115 | 39 | 103 | 0.9 | 0.9 | 0.00 | 0.00 | 0.00 | 64 | 1017.3 |
| 20260502051613 | 39 | 98 | 0.9 | 0.9 | 0.00 | 0.00 | 0.00 | 64 | 1017.3 |
| 20260502051111 | 39 | 66 | 0.9 | 0.9 | 0.00 | 0.00 | 0.00 | 64 | 1017.1 |
| 20260502050607 | 39 | 106 | 0.0 | 0.9 | 0.00 | 0.00 | 0.00 | 63 | 1017.3 |
| 20260502050104 | 39 | 90 | 0.0 | 0.9 | 0.00 | 0.00 | 0.00 | 63 | 1017.3 |
| 20260502045600 | 40 | 82 | 0.0 | 1.7 | 0.00 | 0.00 | 0.00 | 63 | 1017.0 |
| 20260502045057 | 40 | 98 | 0.0 | 0.9 | 0.00 | 0.00 | 0.00 | 63 | 1017.3 |
| 20260502044554 | 40 | 90 | 0.9 | 0.9 | 0.00 | 0.00 | 0.00 | 62 | 1017.4 |
| 20260502044051 | 40 | 74 | 0.0 | 0.9 | 0.00 | 0.00 | 0.00 | 62 | 1017.3 |
| 20260502043548 | 40 | 98 | 0.0 | 0.9 | 0.00 | 0.00 | 0.00 | 61 | 1017.4 |
| 20260502043044 | 41 | 98 | 0.0 | 0.9 | 0.00 | 0.00 | 0.00 | 60 | 1017.2 |
| 20260502042539 | 41 | 90 | 0.9 | 0.9 | 0.00 | 0.00 | 0.00 | 59 | 1017.2 |
| 20260502042037 | 41 | 90 | 0.0 | 0.9 | 0.00 | 0.00 | 0.00 | 59 | 1017.2 |
| 20260502041535 | 41 | 82 | 0.0 | 0.9 | 0.00 | 0.00 | 0.00 | 59 | 1017.4 |
| 20260502041032 | 41 | 90 | 0.0 | 0.9 | 0.00 | 0.00 | 0.00 | 58 | 1017.0 |
| 20260502040528 | 41 | 83 | 0.0 | 0.9 | 0.00 | 0.00 | 0.00 | 58 | 1017.1 |
| 20260502040025 | 41 | 90 | 0.0 | 0.9 | 0.00 | 0.00 | 0.00 | 58 | 1017.3 |
| 20260502035521 | 42 | 114 | 0.0 | 0.9 | 0.00 | 0.00 | 0.00 | 56 | 1017.4 |
| 20260502035019 | 42 | 90 | 0.9 | 0.9 | 0.00 | 0.00 | 0.00 | 55 | 1017.4 |
| 20260502034516 | 42 | 90 | 0.9 | 0.9 | 0.00 | 0.00 | 0.00 | 55 | 1017.1 |
| 20260502034015 | 42 | 90 | 0.0 | 0.0 | 0.00 | 0.00 | 0.00 | 54 | 1017.2 |
| 20260502033513 | 42 | 114 | 0.0 | 0.9 | 0.00 | 0.00 | 0.00 | 54 | 1017.3 |
| 20260502033010 | 43 | 98 | 0.0 | 0.9 | 0.00 | 0.00 | 0.00 | 53 | 1017.4 |
| 20260502032505 | 43 | 74 | 0.0 | 0.0 | 0.00 | 0.00 | 0.00 | 53 | 1017.3 |
| 20260502032003 | 43 | 90 | 0.9 | 0.9 | 0.00 | 0.00 | 0.00 | 52 | 1017.5 |
| 20260502031500 | 43 | 106 | 0.0 | 0.9 | 0.00 | 0.00 | 0.00 | 51 | 1017.3 |
| 20260502030958 | 44 | 90 | 0.0 | 0.0 | 0.00 | 0.00 | 0.00 | 51 | 1017.2 |
| 20260502030456 | 44 | 114 | 0.0 | 0.0 | 0.00 | 0.00 | 0.00 | 51 | 1017.2 |
| 20260502025954 | 44 | 114 | 0.0 | 0.0 | 0.00 | 0.00 | 0.00 | 51 | 1017.3 |
| 20260502025451 | 44 | 114 | 0.0 | 0.0 | 0.00 | 0.00 | 0.00 | 51 | 1017.3 |
| 20260502024949 | 44 | 114 | 0.0 | 0.9 | 0.00 | 0.00 | 0.00 | 50 | 1017.3 |
| 20260502024446 | 44 | 74 | 0.0 | 0.0 | 0.00 | 0.00 | 0.00 | 49 | 1017.3 |
| 20260502023945 | 45 | 74 | 0.0 | 0.0 | 0.00 | 0.00 | 0.00 | 48 | 1017.4 |
| 20260502023442 | 45 | 82 | 0.0 | 0.9 | 0.00 | 0.00 | 0.00 | 47 | 1017.3 |
| 20260502022939 | 45 | 105 | 0.0 | 0.9 | 0.00 | 0.00 | 0.00 | 46 | 1017.3 |
| 20260502022435 | 46 | 106 | 0.0 | 0.9 | 0.00 | 0.00 | 0.00 | 45 | 1017.3 |
| 20260502021932 | 46 | 90 | 0.0 | 0.9 | 0.00 | 0.00 | 0.00 | 45 | 1017.2 |
| 20260502021430 | 46 | 98 | 0.0 | 0.0 | 0.00 | 0.00 | 0.00 | 44 | 1017.2 |
| 20260502020927 | 47 | 106 | 0.0 | 0.0 | 0.00 | 0.00 | 0.00 | 43 | 1017.0 |
| 20260502020425 | 47 | 106 | 0.0 | 0.9 | 0.00 | 0.00 | 0.00 | 42 | 1017.0 |
| 20260502015921 | 48 | 114 | 0.0 | 0.9 | 0.00 | 0.00 | 0.00 | 41 | 1017.1 |
| 20260502015419 | 48 | 90 | 0.0 | 0.0 | 0.00 | 0.00 | 0.00 | 41 | 1016.9 |
| 20260502014915 | 48 | 97 | 0.0 | 0.9 | 0.00 | 0.00 | 0.00 | 40 | 1016.8 |
| 20260502014413 | 49 | 81 | 0.0 | 0.0 | 0.00 | 0.00 | 0.00 | 39 | 1016.7 |
| 20260502013909 | 49 | 81 | 0.0 | 0.0 | 0.00 | 0.00 | 0.00 | 38 | 1016.9 |
| 20260502013404 | 50 | 81 | 0.0 | 0.0 | 0.00 | 0.00 | 0.00 | 38 | 1016.8 |
| 20260502012901 | 50 | 60 | 0.0 | 2.6 | 0.00 | 0.00 | 0.00 | 37 | 1016.7 |
| 20260502012359 | 51 | 106 | 0.9 | 0.9 | 0.00 | 0.00 | 0.00 | 37 | 1016.7 |
| 20260502011856 | 51 | 15 | 0.0 | 2.6 | 0.00 | 0.00 | 0.00 | 36 | 1016.7 |
| 20260502011352 | 51 | 144 | 2.6 | 2.6 | 0.00 | 0.00 | 0.00 | 36 | 1016.7 |
| 20260502010849 | 51 | 66 | 0.0 | 2.6 | 0.00 | 0.00 | 0.00 | 36 | 1016.6 |
| 20260502010346 | 52 | 172 | 0.0 | 1.7 | 0.00 | 0.00 | 0.00 | 36 | 1016.8 |
| 20260502005843 | 52 | 126 | 0.9 | 2.6 | 0.00 | 0.00 | 0.00 | 36 | 1016.5 |
| 20260502005341 | 52 | 15 | 5.2 | 7.0 | 0.00 | 0.00 | 0.00 | 34 | 1016.6 |
| 20260502004838 | 52 | 68 | 0.0 | 2.6 | 0.00 | 0.00 | 0.00 | 35 | 1016.5 |
| 20260502004334 | 53 | 114 | 0.9 | 4.3 | 0.00 | 0.00 | 0.00 | 34 | 1016.6 |